Tracking 35334 objects as of 12-Sep-2026
HD Live streaming from Space Station
objects crossing your sky now

IRIDIUM 33 DEB

Track IRIDIUM 33 DEB now!
10-day predictions


NORAD ID: 46965
Int'l Code: 1997-051ABX
Launch date: September 14, 1997
Source: United States (US)
Launch site: TYURATAM MISSILE AND SPACE COMPLEX (TTMTR)

Note: This is SATELLITE DEBRIS
Your satellite tracking list
Your tracking list is empty




NASA's NSSDC Master Catalog

Two Line Element Set (TLE):
1 46965U 97051ABX 26254.37168657  .00002024  00000-0  39851-3 0  9991
2 46965  86.3348 219.5743 0021227 113.2499  38.4241 14.61951395662491
Source of the keplerian elements: AFSPC